Wind_Speed
7 6 6 7 7 7 5 6 1 9 8 8 7 7 7 7 7 4 4 4 4 5 5 5 5 5 5 5 5 6 6 6 7 7 7 7 8 8 8 8 9 9 9 8 8 7 7 7 7
8 7 8 8 9 12 13 3 3 11 11 10 9 8 8 8 7 5 4 4 5 5 6 6 7 7 7 7 7 8 8 9 9 9 9 9 10 10 10 10 11 10 10 10 9 9 8 8 8
10 10 9 9 9 12 16 9 11 12 13 13 12 10 9 8 7 5 5 5 5 6 7 7 8 8 9 9 10 10 11 11 11 11 11 11 12 12 12 12 12 12 11 11 11 10 9 9 9
13 13 12 11 8 11 15 16 15 15 15 15 14 11 9 8 7 6 6 6 6 7 8 9 10 11 11 12 12 13 13 13 13 13 13 13 13 14 14 14 13 13 13 13 12 11 11 10 10
16 16 15 13 9 18 20 18 17 19 17 15 15 12 9 8 7 7 7 7 8 9 10 10 11 12 13 13 14 15 15 15 15 14 14 15 15 15 15 15 15 15 14 13 13 12 11 11 10
19 18 17 12 11 23 25 18 17 21 20 19 17 12 10 8 7 7 8 8 9 10 12 12 13 14 14 15 16 17 17 17 17 17 17 17 17 18 18 17 17 16 15 15 14 13 13 12 12
21 21 19 14 13 23 24 17 20 24 24 21 17 13 10 9 9 9 9 10 11 13 14 15 15 15 16 17 18 19 19 19 19 20 19 19 19 20 20 20 20 19 18 17 16 15 15 14 14
21 22 20 15 13 22 26 23 22 23 22 20 15 14 11 11 11 11 11 13 13 14 15 16 16 17 18 18 20 21 22 22 21 22 22 22 22 23 23 22 22 22 20 20 19 17 16 16 15
19 19 17 12 15 24 27 26 22 22 24 20 19 17 14 13 14 14 15 16 17 17 17 18 18 18 19 19 21 22 22 23 23 24 25 25 25 24 24 24 24 24 22 21 21 20 19 18 17
14 16 13 17 23 27 28 27 23 20 22 24 21 18 15 16 16 17 17 18 19 19 20 19 19 19 19 19 21 21 21 20 21 22 22 22 24 23 22 22 22 22 22 22 22 22 21 20 19
11 13 18 23 26 29 28 24 24 24 22 23 19 16 17 18 18 20 19 19 20 20 21 21 20 20 19 19 20 20 19 20 20 19 19 19 20 20 21 21 21 21 21 21 23 22 22 21 20
8 11 16 20 22 24 24 23 23 24 26 24 17 13 16 19 20 21 21 21 20 21 21 20 20 20 19 20 19 18 18 17 18 17 17 18 18 19 19 20 21 20 19 19 21 21 21 20 20
8 10 12 13 15 16 18 19 20 23 22 21 17 15 17 20 21 22 22 22 21 21 20 19 19 19 19 19 17 16 16 17 16 16 17 18 18 17 17 18 18 18 18 19 20 21 21 21 21
6 8 10 9 9 10 11 14 18 20 20 19 19 18 20 20 21 22 22 22 21 20 19 18 18 18 19 17 15 15 15 16 16 17 18 18 18 18 18 18 19 19 19 19 20 20 21 22 22
8 9 9 7 7 6 9 15 19 18 14 16 18 19 20 21 21 22 21 20 20 19 18 17 17 17 16 14 14 14 15 15 16 16 17 19 19 19 20 19 20 20 20 21 21 21 21 22 22
13 14 13 11 7 8 11 17 17 12 11 14 18 19 20 20 21 21 20 20 19 18 17 16 15 15 13 12 12 14 14 15 16 17 18 19 19 20 20 20 20 20 21 20 21 21 21 22 23
16 18 17 13 10 10 14 17 14 10 9 12 16 19 20 20 20 20 19 18 17 17 16 14 13 11 11 11 12 13 14 15 16 17 18 19 19 20 20 20 20 21 21 21 21 21 22 22 23
15 16 16 15 12 10 12 14 13 10 9 11 15 17 19 19 19 19 18 16 14 13 12 10 10 10 11 11 11 12 13 14 15 16 17 18 18 19 20 20 20 21 21 20 21 21 21 22 22
10 12 14 14 11 10 11 12 12 11 12 10 12 13 14 16 17 16 15 13 11 10 9 8 8 9 9 9 10 11 12 13 14 14 14 15 16 17 18 18 18 19 19 19 20 20 21 21 21
11 10 12 13 11 10 10 11 12 11 11 9 8 7 7 9 12 10 9 8 8 7 7 6 6 6 7 8 9 10 10 11 11 12 13 14 15 16 16 16 17 17 17 17 18 18 19 20 21
12 11 12 12 12 11 9 9 13 12 12 11 9 6 2 1 2 4 4 4 3 3 3 3 4 5 6 7 9 10 11 11 12 12 13 14 15 15 15 16 16 16 16 16 17 17 18 19 20
13 12 10 9 9 9 10 12 11 12 11 10 10 9 6 5 4 3 2 2 2 1 0 2 4 5 7 9 10 11 12 13 14 14 15 15 16 16 16 16 16 16 16 17 17 17 18 19 20
11 9 7 8 9 9 6 11 12 10 11 9 8 8 6 6 5 5 4 4 4 3 3 4 6 8 9 10 11 13 14 14 15 16 16 16 16 16 17 17 18 18 18 18 19 19 20 20 21
9 9 11 13 12 7 10 9 12 12 11 9 8 7 6 5 5 5 5 5 4 4 5 6 8 9 11 12 13 14 15 16 17 17 17 17 17 17 18 19 19 20 20 20 21 21 22 23 24
10 9 15 18 16 12 14 9 11 12 11 10 8 6 6 5 5 5 5 5 5 6 8 9 10 11 13 14 15 15 16 17 18 19 19 19 19 19 19 20 20 21 22 22 23 24 25 25 26
11 7 11 12 14 11 7 9 13 12 12 11 9 8 7 6 6 6 6 7 7 8 9 10 12 13 14 15 16 17 17 18 19 19 19 19 20 20 20 21 22 23 24 25 26 26 27 28 29
9 7 8 7 7 8 4 9 12 11 13 13 12 10 9 8 7 7 7 8 8 9 10 12 13 14 15 16 17 18 19 20 20 20 20 20 20 21 21 23 24 25 26 27 28 29 30 30 31
8 7 7 4 6 10 9 6 9 16 17 16 14 12 11 10 10 10 10 10 10 11 12 13 14 15 16 17 17 18 19 20 20 21 21 21 21 22 24 25 26 28 29 30 31 32 32 33 34
9 9 7 6 7 7 12 9 11 16 19 19 16 14 13 13 12 12 12 12 12 12 12 13 14 15 16 18 19 19 20 20 20 21 21 22 23 24 26 27 29 30 31 32 33 34 35 36 37
8 9 10 9 10 8 9 12 12 15 20 21 19 18 16 16 16 15 14 13 13 13 13 14 15 16 17 19 20 21 21 22 22 22 22 23 24 26 27 29 31 32 33 34 35 36 37 38 38
Wind_Direction
347 342 334 323 303 287 261 125 206 282 292 294 283 278 277 276 288 321 321 310 308 309 313 319 322 325 325 326 323 316 309 305 301 299 295 294 295 298 300 303 307 311 314 317 323 329 334 337 341
322 317 309 302 296 306 308 5 261 283 291 289 286 285 283 282 289 294 303 305 304 307 313 316 316 317 317 317 315 310 307 304 301 299 296 294 294 295 296 297 300 302 305 307 310 315 319 320 322
303 298 294 295 298 312 308 302 286 288 287 281 279 282 285 286 291 293 301 306 310 311 315 316 315 314 312 309 307 305 305 303 301 300 298 297 296 296 296 295 295 296 298 299 300 304 307 308 309
291 289 284 281 285 273 275 275 278 282 278 274 273 276 280 287 296 300 303 312 319 320 320 320 318 315 311 308 306 305 305 304 303 301 298 297 295 294 294 292 292 291 292 292 292 293 296 297 299
282 279 277 276 274 267 260 262 269 268 267 261 259 261 272 286 300 306 308 318 323 327 324 319 314 313 310 306 305 305 303 302 300 298 296 296 295 293 291 289 288 288 287 285 285 286 288 290 292
274 269 267 271 280 270 265 258 256 261 260 256 254 254 267 280 293 302 307 317 327 329 328 320 313 308 304 300 297 298 298 296 293 291 290 290 291 290 288 285 283 282 282 281 280 282 283 284 286
270 266 261 255 258 275 276 260 259 262 249 249 253 252 260 274 285 294 302 312 322 324 323 319 310 303 299 295 292 291 290 288 287 287 285 285 284 283 282 282 279 278 277 276 274 275 277 279 282
267 262 259 255 255 268 269 265 257 253 249 246 254 262 263 275 283 290 297 305 312 316 317 316 310 302 297 293 290 287 286 283 283 283 282 281 281 280 277 277 274 272 273 270 268 269 272 273 276
267 256 254 251 252 250 254 259 256 256 260 261 268 265 266 275 283 290 296 301 306 310 312 314 310 304 298 293 290 290 288 284 281 282 280 277 278 278 275 272 272 269 268 266 263 264 266 268 270
264 246 241 242 237 239 247 255 258 261 259 258 257 260 268 275 282 289 294 299 303 307 309 311 310 305 301 294 291 291 289 287 284 283 284 282 278 279 277 274 276 272 268 264 259 259 263 263 264
266 237 233 238 239 243 250 257 263 259 253 254 250 252 267 273 280 284 289 294 298 304 306 308 308 304 301 298 295 292 288 287 287 285 285 286 282 278 278 275 275 276 271 268 261 258 259 261 261
294 254 252 250 249 252 257 258 259 257 256 256 260 262 266 274 280 285 290 292 296 301 304 305 305 303 300 300 297 292 287 287 288 287 287 288 285 283 280 280 278 279 277 274 270 263 262 261 263
323 292 279 270 267 265 262 260 258 261 260 274 276 278 275 276 279 283 287 293 297 300 302 301 302 300 298 297 295 292 288 288 291 289 290 287 288 288 286 283 282 282 280 280 277 271 266 265 265
337 298 291 281 273 273 268 262 256 258 263 270 276 275 271 275 278 282 285 290 293 296 298 297 299 298 297 294 294 294 293 295 293 290 290 291 291 289 286 284 284 284 283 281 278 274 271 268 267
358 321 310 317 303 284 267 259 257 250 256 268 269 268 269 272 274 277 282 285 289 292 295 294 295 297 298 293 292 294 295 296 296 295 294 293 294 292 290 289 287 285 283 280 278 276 274 272 271
354 332 334 339 339 315 289 275 271 267 257 265 266 265 267 267 270 274 276 278 282 285 289 292 294 295 296 294 293 295 297 298 299 298 296 295 295 294 293 292 289 286 284 282 279 278 276 273 272
348 338 337 342 348 335 308 301 302 289 272 271 271 269 268 268 268 269 271 272 275 279 281 288 289 291 293 293 295 299 301 302 302 300 298 296 295 294 293 293 290 287 285 284 281 280 277 275 274
336 326 326 330 341 342 318 313 321 319 297 278 274 271 267 265 267 266 264 265 268 269 275 285 287 292 293 295 301 305 307 307 306 304 302 301 298 298 297 295 292 290 288 285 283 281 279 277 275
320 321 325 331 340 345 340 336 337 335 331 304 281 278 271 260 260 261 257 257 258 262 269 281 287 295 300 305 309 312 312 311 310 310 309 308 307 304 302 300 296 293 290 287 285 282 280 279 277
313 315 323 337 348 349 354 2 0 4 351 341 317 299 290 258 253 247 239 244 255 256 265 280 291 305 315 321 324 324 323 323 323 322 320 319 316 312 309 306 303 299 296 292 288 285 282 280 279
317 323 335 341 340 340 358 11 14 14 8 3 0 356 358 228 194 212 217 230 245 254 258 284 305 323 332 337 338 338 337 336 335 331 328 326 323 321 318 314 311 306 303 299 295 291 287 285 282
317 330 332 326 321 328 358 2 5 10 11 11 18 34 54 84 93 107 114 117 136 133 12 342 347 353 352 349 347 346 345 342 340 336 333 329 326 324 322 319 316 313 308 304 301 297 294 291 288
316 315 308 289 280 280 339 355 357 9 14 19 20 31 50 68 76 86 89 85 80 67 35 10 6 3 357 353 350 348 345 341 337 334 331 329 326 324 323 320 318 315 311 307 304 301 298 295 292
319 317 315 310 295 316 9 358 339 356 3 8 13 21 38 55 65 68 67 60 50 35 21 12 5 358 353 349 344 340 336 334 332 330 328 326 324 321 319 317 316 315 312 309 306 304 301 298 295
321 324 324 336 356 13 16 358 338 348 349 351 358 7 16 26 33 36 33 28 21 13 9 5 358 352 347 344 339 334 331 328 326 325 324 322 320 318 317 317 316 315 313 310 308 305 303 300 298
316 311 315 337 346 347 349 329 336 342 342 341 344 352 360 7 9 9 8 5 1 359 358 355 351 346 341 337 334 331 328 325 324 323 322 321 320 319 319 318 317 316 313 311 308 306 304 301 298
300 287 303 327 323 303 292 307 323 338 337 337 337 340 344 347 348 350 351 349 347 347 347 345 342 339 336 332 330 328 326 325 325 324 323 322 321 320 319 318 317 316 314 311 309 307 304 301 299
312 292 277 270 309 318 307 276 298 326 328 329 328 328 331 332 334 337 339 339 337 336 335 334 333 332 330 328 327 325 323 322 322 321 321 320 320 319 319 319 317 315 313 312 310 308 305 303 300
292 304 287 260 246 282 311 322 307 316 320 324 323 322 323 324 324 325 326 325 325 324 323 323 324 324 324 324 323 322 320 320 320 319 318 318 318 318 319 319 319 317 315 313 311 309 307 304 301
254 262 272 270 257 252 287 296 291 305 312 317 318 314 315 317 316 316 317 316 314 314 314 315 316 318 319 319 320 320 319 318 318 317 316 315 315 316 318 318 319 318 317 315 313 311 308 306 303
Height
5919 5919 5918 5917 5917 5915 5910 5905 5911 5912 5910 5910 5910 5910 5909 5909 5909 5910 5909 5908 5909 5908 5908 5908 5909 5909 5909 5910 5910 5910 5910 5910 5910 5910 5909 5909 5909 5908 5908 5907 5907 5906 5906 5905 5905 5904 5903 5903 5902
5918 5918 5918 5917 5916 5913 5907 5905 5909 5911 5910 5909 5909 5909 5909 5908 5908 5908 5908 5908 5909 5908 5908 5908 5908 5908 5908 5909 5909 5909 5909 5909 5909 5909 5909 5908 5908 5907 5907 5907 5906 5906 5905 5905 5904 5904 5903 5903 5902
5916 5916 5916 5916 5915 5913 5909 5909 5910 5909 5909 5908 5907 5907 5908 5907 5907 5907 5907 5908 5908 5908 5908 5907 5907 5907 5907 5908 5908 5908 5908 5908 5908 5907 5907 5907 5907 5906 5906 5905 5905 5904 5904 5903 5903 5903 5902 5902 5901
5914 5914 5914 5915 5914 5914 5911 5909 5908 5907 5907 5905 5904 5905 5904 5905 5906 5906 5906 5907 5907 5907 5907 5907 5906 5906 5906 5906 5906 5906 5906 5906 5906 5906 5906 5905 5905 5905 5904 5904 5903 5903 5902 5902 5902 5901 5901 5900 5900
5910 5911 5912 5912 5912 5911 5908 5907 5905 5905 5903 5900 5899 5900 5902 5903 5904 5904 5905 5905 5906 5906 5906 5906 5905 5905 5905 5905 5905 5905 5904 5904 5904 5904 5903 5903 5903 5903 5902 5902 5901 5901 5900 5900 5900 5899 5899 5899 5898
5907 5908 5908 5908 5909 5907 5904 5901 5903 5903 5900 5896 5894 5895 5898 5900 5901 5902 5902 5903 5904 5904 5904 5904 5904 5904 5904 5904 5903 5903 5903 5902 5902 5901 5901 5900 5900 5900 5900 5899 5899 5898 5898 5898 5897 5897 5897 5897 5897
5903 5903 5903 5905 5907 5904 5899 5896 5898 5897 5893 5891 5891 5890 5894 5896 5898 5899 5900 5900 5901 5901 5901 5901 5901 5901 5901 5901 5901 5901 5900 5900 5899 5899 5898 5898 5897 5896 5896 5896 5896 5895 5895 5895 5895 5895 5895 5895 5894
5897 5898 5899 5902 5904 5902 5897 5894 5890 5891 5885 5881 5885 5888 5890 5893 5895 5896 5897 5898 5898 5899 5899 5898 5898 5898 5898 5898 5897 5897 5896 5896 5895 5895 5895 5894 5893 5892 5892 5892 5891 5891 5891 5891 5892 5892 5892 5892 5892
5891 5894 5895 5898 5900 5896 5893 5890 5885 5886 5884 5881 5883 5886 5888 5891 5893 5893 5894 5895 5895 5895 5895 5895 5895 5894 5894 5894 5893 5893 5892 5891 5891 5891 5890 5889 5888 5888 5887 5887 5887 5886 5886 5887 5887 5888 5889 5889 5889
5887 5889 5891 5893 5890 5888 5887 5885 5883 5885 5882 5879 5877 5880 5886 5888 5890 5891 5891 5892 5892 5891 5891 5891 5891 5891 5890 5890 5889 5888 5888 5886 5886 5885 5885 5884 5883 5883 5883 5882 5882 5881 5881 5881 5882 5883 5884 5885 5885
5883 5884 5885 5883 5883 5882 5882 5881 5881 5881 5877 5874 5871 5874 5883 5885 5886 5887 5888 5888 5888 5888 5888 5887 5887 5887 5886 5885 5884 5883 5883 5882 5881 5881 5880 5880 5879 5878 5878 5878 5877 5877 5876 5876 5877 5878 5879 5880 5881
5880 5879 5878 5877 5878 5878 5878 5878 5877 5875 5871 5866 5867 5874 5880 5882 5882 5883 5884 5884 5884 5884 5884 5884 5883 5882 5881 5881 5880 5879 5878 5878 5877 5877 5876 5875 5875 5874 5873 5873 5873 5873 5872 5872 5873 5873 5874 5875 5876
5878 5877 5876 5874 5874 5874 5875 5875 5873 5870 5867 5866 5868 5874 5877 5878 5879 5880 5879 5879 5880 5881 5880 5880 5879 5879 5878 5877 5876 5875 5875 5874 5874 5873 5872 5871 5871 5871 5870 5869 5869 5869 5869 5869 5869 5869 5869 5870 5871
5877 5876 5874 5872 5872 5872 5872 5872 5870 5865 5865 5867 5870 5872 5874 5875 5875 5875 5876 5876 5877 5877 5877 5876 5876 5875 5874 5873 5872 5872 5871 5870 5870 5869 5868 5867 5867 5867 5866 5866 5865 5865 5865 5865 5864 5865 5865 5866 5866
5876 5874 5872 5870 5869 5869 5870 5868 5865 5862 5863 5866 5868 5869 5870 5870 5870 5871 5872 5872 5873 5873 5873 5873 5872 5872 5871 5870 5869 5869 5868 5867 5867 5866 5865 5864 5863 5862 5862 5861 5861 5860 5860 5860 5860 5860 5860 5861 5861
5876 5873 5870 5870 5868 5868 5869 5864 5860 5859 5861 5864 5865 5867 5866 5865 5865 5867 5868 5869 5870 5870 5870 5870 5869 5869 5868 5867 5867 5866 5865 5864 5863 5862 5861 5860 5859 5858 5857 5857 5856 5856 5855 5855 5855 5855 5855 5856 5856
5876 5873 5871 5869 5868 5868 5866 5862 5861 5859 5860 5860 5861 5862 5862 5861 5862 5863 5863 5865 5866 5866 5867 5867 5867 5866 5866 5865 5864 5864 5862 5861 5860 5859 5857 5856 5855 5854 5853 5853 5852 5851 5851 5850 5850 5850 5850 5850 5850
5879 5875 5872 5870 5869 5868 5865 5862 5860 5857 5855 5855 5857 5857 5858 5858 5858 5858 5859 5861 5862 5863 5864 5864 5864 5864 5863 5863 5862 5861 5859 5858 5857 5856 5854 5853 5851 5850 5849 5848 5847 5846 5846 5845 5845 5845 5845 5845 5845
5880 5877 5875 5872 5870 5869 5866 5862 5859 5857 5855 5853 5853 5853 5853 5853 5855 5855 5856 5858 5859 5861 5862 5862 5862 5862 5861 5860 5859 5858 5857 5856 5854 5853 5851 5849 5848 5847 5845 5844 5843 5842 5841 5841 5840 5840 5840 5840 5840
5878 5877 5875 5873 5871 5869 5866 5863 5860 5857 5856 5853 5851 5850 5849 5850 5851 5852 5854 5856 5857 5859 5860 5860 5860 5860 5859 5858 5857 5856 5855 5854 5852 5850 5848 5847 5845 5844 5842 5841 5840 5839 5838 5837 5836 5835 5835 5835 5835
5878 5876 5875 5873 5870 5868 5866 5864 5861 5859 5857 5855 5853 5850 5849 5850 5851 5852 5854 5856 5857 5858 5859 5859 5859 5858 5857 5857 5855 5854 5853 5851 5850 5848 5847 5845 5843 5841 5840 5838 5837 5835 5834 5833 5832 5831 5830 5830 5830
5878 5876 5874 5872 5870 5867 5866 5864 5862 5860 5859 5857 5855 5853 5851 5851 5852 5853 5855 5855 5856 5857 5858 5858 5857 5856 5856 5855 5853 5852 5851 5849 5848 5846 5844 5843 5841 5839 5837 5835 5834 5832 5831 5830 5829 5827 5826 5825 5825
5877 5875 5873 5869 5866 5864 5863 5863 5862 5861 5860 5859 5857 5856 5854 5854 5854 5854 5855 5856 5856 5856 5856 5856 5856 5855 5854 5853 5851 5850 5849 5847 5846 5844 5842 5840 5839 5837 5835 5833 5831 5829 5828 5826 5825 5823 5822 5821 5820
5875 5873 5871 5867 5862 5860 5862 5864 5862 5861 5861 5860 5859 5858 5856 5856 5856 5855 5855 5855 5855 5855 5855 5855 5854 5853 5852 5851 5849 5848 5847 5845 5843 5842 5840 5838 5836 5834 5832 5830 5828 5826 5824 5822 5820 5819 5817 5815 5814
5873 5873 5870 5865 5861 5861 5863 5865 5863 5862 5861 5860 5859 5858 5857 5856 5855 5855 5855 5855 5854 5854 5853 5853 5852 5851 5850 5849 5847 5846 5844 5843 5841 5839 5837 5835 5833 5831 5829 5827 5824 5822 5820 5818 5816 5814 5812 5809 5807
5872 5872 5871 5869 5867 5865 5865 5864 5863 5862 5861 5860 5859 5858 5857 5856 5855 5855 5854 5854 5853 5853 5852 5851 5850 5849 5848 5847 5845 5844 5842 5840 5838 5836 5834 5832 5829 5827 5825 5822 5820 5817 5815 5812 5810 5808 5805 5803 5801
5871 5870 5870 5869 5869 5866 5863 5863 5861 5861 5860 5859 5858 5857 5856 5856 5855 5854 5853 5853 5852 5851 5850 5849 5848 5847 5846 5845 5843 5841 5839 5837 5835 5832 5830 5828 5825 5823 5820 5818 5815 5812 5809 5806 5803 5801 5798 5795 5793
5869 5868 5868 5868 5867 5866 5863 5861 5860 5860 5859 5859 5857 5856 5855 5855 5854 5852 5851 5851 5850 5849 5848 5847 5846 5845 5844 5842 5841 5839 5837 5834 5831 5829 5826 5824 5821 5818 5815 5812 5809 5806 5803 5800 5796 5793 5790 5787 5784
5866 5867 5866 5866 5865 5865 5862 5861 5859 5859 5858 5857 5856 5854 5854 5853 5852 5851 5850 5849 5848 5847 5846 5845 5844 5843 5841 5839 5837 5835 5833 5831 5828 5826 5823 5819 5816 5813 5810 5807 5803 5800 5796 5792 5788 5785 5781 5777 5774
5862 5864 5864 5864 5864 5864 5863 5863 5857 5857 5856 5855 5854 5853 5852 5851 5849 5848 5847 5847 5846 5845 5844 5843 5841 5840 5838 5836 5834 5832 5829 5827 5824 5821 5818 5815 5811 5808 5804 5800 5796 5792 5788 5784 5780 5776 5771 5767 5763